Regional Weather Roundup
Issued by NWS

Home | Current Version | Previous Version | Graphics & Text | Print | Product List | Glossary On
Versions: 1 2 3 4 5 6 7 8 9 10 11 12 13 14 15 16 17 18 19 20 21 22 23 24 25 26 27 28 29 30 31 32 33 34 35 36 37 38 39 40 41 42 43 44 45 46 47 48 49 50
000
ASUS43 KLSX 130607
RWRMO

WEATHER SUMMARY FOR MISSOURI
NATIONAL WEATHER SERVICE SPRINGFIELD MO
100 AM CDT SUN JUL 13 2014

NOTE: "FAIR" INDICATES FEW OR NO CLOUDS BELOW 12,000 FEET WITH NO
       SIGNIFICANT WEATHER AND/OR OBSTRUCTIONS TO VISIBILITY.
       CURRENT SKY AND/OR WEATHER CONDITIONS ARE NOT AVAILABLE FOR
       CHILLICOTHE AND FARMINGTON.

MOZ001>031-035>038-043-044-053-054-130700-
...NORTHERN AND WESTERN MISSOURI...

CITY           SKY/WX    TMP DP  RH WIND       PRES   REMARKS
KANSAS CTY INT MOCLDY    82  68  62 SW14      29.97R
6HR MIN TEMP:  82; 6HR MAX TEMP:  88;

KANSAS C DTWN  CLEAR     85  67  54 SW10      29.96R
6HR MIN TEMP:  85; 6HR MAX TEMP:  92;

LEE`S SUMMIT   CLEAR     80  67  64 SW14      29.98S
6HR MIN TEMP:  80; 6HR MAX TEMP:  89;

ST JOSEPH      MOCLDY    78  74  87 N18G24    30.00R
6HR MIN TEMP:  78; 6HR MAX TEMP:  89;

CHILLICOTHE      N/A     80  71  74 S5        29.95R
6HR MIN TEMP:  79; 6HR MAX TEMP:  89;

KIRKSVILLE     CLOUDY    80  72  76 N8        29.98R
6HR MIN TEMP:  79; 6HR MAX TEMP:  85;


$$
MOZ066>068-077>081-088>096-101>105-130700-
...SOUTHWEST MISSOURI...

CITY           SKY/WX    TMP DP  RH WIND       PRES   REMARKS
SPRINGFIELD    CLEAR     74  69  85 S8        30.07F
6HR MIN TEMP:  74; 6HR MAX TEMP:  87;

JOPLIN         CLEAR     79  65  62 S13       30.04F
6HR MIN TEMP:  79; 6HR MAX TEMP:  89;


$$
MOZ032>034-039>042-045>050-055>058-069>072-130700-
...CENTRAL MISSOURI...

CITY           SKY/WX    TMP DP  RH WIND       PRES   REMARKS
COLUMBIA       CLEAR     80  69  69 SW12      29.99F
6HR MIN TEMP:  79; 6HR MAX TEMP:  87;

JEFFERSON CITY CLEAR     81  69  67 SW6       29.98F
6HR MIN TEMP:  80; 6HR MAX TEMP:  90;

ROLLA          CLEAR     76  70  82 S9        30.02F
6HR MIN TEMP:  76; 6HR MAX TEMP:  88;

SEDALIA        CLEAR     80  69  69 SW10      30.00S
6HR MIN TEMP:  79; 6HR MAX TEMP:  89;

OSAGE BEACH    CLEAR     79  66  65 SW7       30.02F

$$
MOZ051-052-059>065-130700-
...EAST CENTRAL MISSOURI...

CITY           SKY/WX    TMP DP  RH WIND       PRES   REMARKS
ST LOUIS INTL  MOCLDY    84  70  62 SW15      29.98F
6HR MIN TEMP:  84; 6HR MAX TEMP:  93;

SPIRIT OF STL  PTCLDY    82  69  64 SW8       29.97F
6HR MIN TEMP:  82; 6HR MAX TEMP:  89;

ST CHARLES     PTCLDY    80  70  71 SW8       29.95F
6HR MIN TEMP:  79; 6HR MAX TEMP:  90;


$$
MOZ072>076-082>087-097>100-106>115-130700-
...SOUTH CENTRAL AND SOUTHEAST MISSOURI...

CITY           SKY/WX    TMP DP  RH WIND       PRES   REMARKS
CAPE GIRARDEAU CLEAR     78  73  84 CALM      30.05S
6HR MIN TEMP:  78; 6HR MAX TEMP:  90;

FARMINGTON       N/A    N/A N/A N/A MISG        N/A
POPLAR BLUFF   CLEAR     77  71  82 S3        30.05F
6HR MIN TEMP:  77; 6HR MAX TEMP:  89;

WEST PLAINS    CLEAR     77  70  79 S7        30.10F
6HR MIN TEMP:  76; 6HR MAX TEMP:  87;


$$



USA.gov is the U.S. government's official web portal to all federal, state and local government web resources and services.